FW1811 Hemei TW current weather conditions

sailwx.info

Wind from 003 at 6 knots gusting 8

Air temperature 23.9° C
Dewpoint 19.8° C

Last reported at 2020-Sep-26 17:05 UTC.
Time now 2020-Sep-26 17:44 UTC

Location: N 24°07' E 120°30'.
View on Google Maps.

See reports from other nearby stations

  
Tides and Currents Weather Stations Pressure Air Temp Water Temp Dewpoint Dewpoint Depression Visibility Wind Speed Wind Dir Waves Ship Positions
date/time (UTC)wind fromknots sea level pressurealtimeterstation pressurevisibilityair tempwater tempwave heightnotes
2020-Sep-26 17:05 003 6 gusting 8 23.9
2020-Sep-26 17:00 003 6 gusting 11 23.9
2020-Sep-26 16:50 030 5 gusting 8 24.4
2020-Sep-26 16:45 008 4 gusting 7 24.4
2020-Sep-26 16:40 004 6 gusting 11 24.4
2020-Sep-26 16:35 022 6 gusting 9 24.4
2020-Sep-26 16:30 006 4 gusting 9 24.4
2020-Sep-26 16:25 014 5 gusting 9 24.4
2020-Sep-26 16:20 013 4 gusting 9 24.4
2020-Sep-26 16:15 016 4 gusting 7 25.0
2020-Sep-26 16:10 036 3 gusting 6 25.0
2020-Sep-26 16:05 007 3 gusting 8 25.0
2020-Sep-26 16:00 031 3 gusting 8 25.0
2020-Sep-26 15:55 010 5 gusting 7 25.0
2020-Sep-26 15:50 027 3 gusting 6 25.0
2020-Sep-26 15:45 032 3 gusting 8 25.0
2020-Sep-26 15:40 024 3 gusting 8 25.0
2020-Sep-26 15:35 021 5 gusting 9 25.0
2020-Sep-26 15:30 015 3 gusting 6 25.0
2020-Sep-26 15:25 014 5 gusting 8 25.0
2020-Sep-26 15:20 027 4 gusting 7 25.0
2020-Sep-26 15:15 013 4 gusting 7 25.0
2020-Sep-26 15:10 025 4 gusting 7 25.0
2020-Sep-26 15:05 011 3 gusting 6 25.0
2020-Sep-26 15:00 041 3 gusting 6 25.0
2020-Sep-26 14:55 034 3 gusting 9 25.0
2020-Sep-26 14:50 030 4 gusting 6 25.0
2020-Sep-26 14:45 019 5 gusting 8 25.0
2020-Sep-26 14:40 027 5 gusting 9 25.0
2020-Sep-26 14:35 034 6 gusting 13 25.0
2020-Sep-26 14:30 033 5 gusting 12 25.0
2020-Sep-26 14:20 033 4 gusting 7 25.0
2020-Sep-26 14:15 032 5 gusting 7 25.0
2020-Sep-26 14:10 036 4 gusting 6 25.0
2020-Sep-26 14:05 049 5 gusting 8 25.0
2020-Sep-26 14:00 020 5 gusting 8 25.0
2020-Sep-26 13:55 040 4 gusting 7 25.0
2020-Sep-26 13:50 017 5 gusting 9 25.0
2020-Sep-26 13:45 007 6 gusting 13 25.0
2020-Sep-26 13:40 025 5 gusting 9 25.0
2020-Sep-26 13:35 023 6 gusting 12 25.0
2020-Sep-26 13:30 003 5 gusting 11 25.0
2020-Sep-26 13:25 029 4 gusting 9 25.0
2020-Sep-26 13:20 032 5 gusting 12 25.0
2020-Sep-26 13:15 009 5 gusting 9 25.0
2020-Sep-26 13:10 008 6 gusting 13 25.0
2020-Sep-26 13:05 356 6 gusting 12 25.0
2020-Sep-26 13:00 009 6 gusting 12 25.0
2020-Sep-26 12:55 006 6 gusting 11 25.0
2020-Sep-26 12:50 011 5 gusting 8 25.0
2020-Sep-26 12:45 016 4 gusting 8 25.0
2020-Sep-26 12:40 031 4 gusting 6 25.0
2020-Sep-26 12:35 020 4 gusting 6 25.0
2020-Sep-26 12:30 009 5 gusting 7 25.0
2020-Sep-26 12:25 006 4 gusting 8 25.0
2020-Sep-26 12:20 013 4 gusting 7 25.0
2020-Sep-26 12:15 009 4 gusting 7 25.6
2020-Sep-26 12:10 017 4 gusting 6 25.6
2020-Sep-26 12:05 010 4 gusting 8 25.6
2020-Sep-26 12:00 016 2 gusting 6 25.6
2020-Sep-26 11:55 015 3 gusting 6 25.6
2020-Sep-26 11:50 014 4 gusting 6 25.6
2020-Sep-26 11:45 018 4 gusting 6 25.6
2020-Sep-26 11:40 001 4 gusting 6 25.6
2020-Sep-26 11:35 019 3 gusting 5 25.6
2020-Sep-26 11:30 023 5 gusting 7 25.6
2020-Sep-26 11:25 019 4 gusting 6 25.6
2020-Sep-26 11:20 016 3 gusting 6 25.6
2020-Sep-26 11:15 020 5 gusting 8 25.6
2020-Sep-26 11:10 019 4 gusting 7 25.6
2020-Sep-26 11:05 006 4 gusting 9 25.6
2020-Sep-26 11:00 26.1
2020-Sep-26 10:55 005 4 gusting 7 26.1
2020-Sep-26 10:50 041 4 gusting 7 26.1
2020-Sep-26 10:45 019 5 gusting 9 26.1
2020-Sep-26 10:40 037 5 gusting 8 26.1
2020-Sep-26 10:35 054 5 gusting 8 26.1
2020-Sep-26 10:30 033 4 gusting 11 26.1
2020-Sep-26 10:25 014 5 gusting 8 26.1
2020-Sep-26 10:20 014 4 gusting 8 26.1
2020-Sep-26 10:15 009 5 gusting 9 26.1
2020-Sep-26 10:10 011 5 gusting 11 26.1
2020-Sep-26 10:05 26.1
2020-Sep-26 10:00 023 5 gusting 11 26.1
2020-Sep-26 09:55 024 5 gusting 8 26.7
2020-Sep-26 09:50 022 5 gusting 9 26.7
2020-Sep-26 09:45 016 6 gusting 11 26.7
2020-Sep-26 09:40 033 7 gusting 14 26.7
2020-Sep-26 09:35 020 7 gusting 13 26.7
2020-Sep-26 09:30 029 6 gusting 13 26.7
2020-Sep-26 09:25 033 6 gusting 12 26.7
2020-Sep-26 09:20 029 8 gusting 13 26.7
2020-Sep-26 09:15 022 5 gusting 8 26.7
2020-Sep-26 09:10 021 5 gusting 12 26.7
2020-Sep-26 09:05 019 6 gusting 12 26.7
2020-Sep-26 09:00 027 5 gusting 12 27.2
2020-Sep-26 08:55 024 6 gusting 13 27.2
2020-Sep-26 08:50 024 6 gusting 11 27.2
2020-Sep-26 08:45 016 5 gusting 11 27.2
2020-Sep-26 08:40 040 5 gusting 9 27.2
2020-Sep-26 08:35 040 6 gusting 12 27.2
2020-Sep-26 08:30 021 6 gusting 11 27.2
2020-Sep-26 08:25 024 6 gusting 9 27.2
2020-Sep-26 08:20 027 6 gusting 12 27.2
2020-Sep-26 08:15 007 6 gusting 13 27.2
2020-Sep-26 08:10 017 7 gusting 18 27.2
2020-Sep-26 08:05 020 6 gusting 15 27.2
2020-Sep-26 08:00 011 7 gusting 13 27.2
2020-Sep-26 07:55 012 8 gusting 15 27.8
2020-Sep-26 07:50 014 7 gusting 13 27.8
2020-Sep-26 07:45 032 6 gusting 12 27.8
2020-Sep-26 07:40 034 7 gusting 13 27.8
2020-Sep-26 07:35 022 7 gusting 13 27.8
2020-Sep-26 07:30 017 6 gusting 13 27.8
2020-Sep-26 07:25 020 6 gusting 11 27.8
2020-Sep-26 07:20 028 6 gusting 11 28.3
2020-Sep-26 07:15 014 5 gusting 9 28.3
2020-Sep-26 07:10 006 7 gusting 13 27.8
2020-Sep-26 07:05 012 7 gusting 13 28.3
2020-Sep-26 07:00 007 6 gusting 13 28.3
2020-Sep-26 06:55 019 7 gusting 12 28.3
2020-Sep-26 06:50 025 6 gusting 13 27.8
2020-Sep-26 06:45 027 7 gusting 13 27.8
2020-Sep-26 06:40 016 7 gusting 15 28.3
2020-Sep-26 06:35 023 6 gusting 13 28.3
2020-Sep-26 06:30 019 5 gusting 8 28.9
2020-Sep-26 06:25 016 5 gusting 13 28.3
2020-Sep-26 06:20 013 6 gusting 12 28.3
2020-Sep-26 06:15 027 6 gusting 14 28.3
2020-Sep-26 06:10 009 7 gusting 13 28.3
2020-Sep-26 06:05 013 5 gusting 12 28.3
2020-Sep-26 06:00 356 6 gusting 13 28.9
2020-Sep-26 05:55 021 6 gusting 11 28.3
2020-Sep-26 05:50 015 6 gusting 13 28.3
2020-Sep-26 05:45 027 6 gusting 12 28.9
2020-Sep-26 05:40 014 6 gusting 13 28.9
2020-Sep-26 05:35 006 6 gusting 13 28.9
2020-Sep-26 05:30 033 6 gusting 12 28.9
2020-Sep-26 05:25 011 7 gusting 13 28.9
2020-Sep-26 05:20 026 6 gusting 11 29.4
2020-Sep-26 05:15 005 6 gusting 12 29.4
2020-Sep-26 05:10 030 6 gusting 11 29.4
2020-Sep-26 05:05 013 6 gusting 12 30.0
2020-Sep-26 05:00 015 6 gusting 11 30.6
2020-Sep-26 04:55 019 5 gusting 9 30.0
2020-Sep-26 04:50 021 5 gusting 9 30.0
2020-Sep-26 04:45 030 7 gusting 11 29.4
2020-Sep-26 04:40 041 6 gusting 11 30.0
2020-Sep-26 04:35 021 5 gusting 11 30.0
2020-Sep-26 04:30 018 5 gusting 8 30.0
2020-Sep-26 04:25 033 5 gusting 7 30.0
2020-Sep-26 04:20 027 5 gusting 8 30.0
2020-Sep-26 04:15 008 5 gusting 11 30.0
2020-Sep-26 04:10 001 5 gusting 11 29.4
2020-Sep-26 04:05 032 6 gusting 11 29.4
2020-Sep-26 04:00 011 6 gusting 11 28.9
2020-Sep-26 03:55 024 6 gusting 9 28.9
2020-Sep-26 03:50 018 6 gusting 11 28.9
2020-Sep-26 03:45 027 5 gusting 11 28.9
2020-Sep-26 03:40 014 6 gusting 9 28.9
2020-Sep-26 03:35 020 4 gusting 8 28.9
2020-Sep-26 03:30 024 5 gusting 7 28.9
2020-Sep-26 03:25 027 5 gusting 9 28.9
2020-Sep-26 03:20 036 5 gusting 8 28.9
2020-Sep-26 03:15 007 4 gusting 9 28.9
2020-Sep-26 03:10 021 4 gusting 7 28.9
2020-Sep-26 03:05 015 4 gusting 8 28.9
2020-Sep-26 03:00 018 3 gusting 6 28.3
2020-Sep-26 02:55 015 6 gusting 8 28.3
2020-Sep-26 02:50 008 4 gusting 6 28.3
2020-Sep-26 02:45 013 4 gusting 9 28.3
2020-Sep-26 02:40 015 4 gusting 6 28.3
2020-Sep-26 02:35 007 3 gusting 6 28.3
2020-Sep-26 02:30 018 4 gusting 6 28.3
2020-Sep-26 02:25 014 3 gusting 6 28.3
2020-Sep-26 02:20 020 4 gusting 7 28.3
2020-Sep-26 02:15 025 4 gusting 7 28.3
2020-Sep-26 02:10 011 2 gusting 6 28.3
2020-Sep-26 02:05 019 2 gusting 6 28.3
2020-Sep-26 02:00 017 4 gusting 6 27.8
2020-Sep-26 01:55 011 4 gusting 6 27.2
2020-Sep-26 01:50 035 3 gusting 6 27.2
2020-Sep-26 01:45 032 3 gusting 6 27.2
2020-Sep-26 01:40 018 4 gusting 6 27.2
2020-Sep-26 01:35 013 3 gusting 6 27.2
2020-Sep-26 01:30 008 3 gusting 5 27.2
2020-Sep-26 01:25 029 3 gusting 5 27.2
2020-Sep-26 01:20 039 2 gusting 4 26.7
2020-Sep-26 01:15 038 1 gusting 4 26.7
2020-Sep-26 01:10 035 1 gusting 4 26.7
2020-Sep-26 01:05 045 1 gusting 2 26.7
2020-Sep-26 01:00 016 1 gusting 2 26.7
2020-Sep-26 00:55 043 0 gusting 2 26.7
2020-Sep-26 00:50 048 1 gusting 2 26.7
2020-Sep-26 00:45 033 2 gusting 4 26.7
2020-Sep-26 00:40 030 1 gusting 2 26.7
2020-Sep-26 00:35 047 1 gusting 4 26.7
2020-Sep-26 00:30 046 1 gusting 4 26.1
2020-Sep-26 00:25 050 1 gusting 2 26.1
2020-Sep-26 00:20 049 1 gusting 1 26.1
2020-Sep-26 00:15 037 2 gusting 4 26.1
2020-Sep-26 00:10 039 2 gusting 4 25.6
2020-Sep-26 00:05 045 2 gusting 4 25.6
2020-Sep-26 00:00 032 1 gusting 4 25.6
2020-Sep-25 23:55 043 2 gusting 5 25.6
2020-Sep-25 23:50 032 1 gusting 6 25.6
2020-Sep-25 23:45 033 2 gusting 5 25.6
2020-Sep-25 23:40 024 2 gusting 4 25.6
2020-Sep-25 23:35 044 2 gusting 4 25.0
2020-Sep-25 23:30 040 3 gusting 6 25.0
2020-Sep-25 23:25 039 2 gusting 5 25.6
2020-Sep-25 23:20 048 2 gusting 4 25.6
2020-Sep-25 23:15 052 3 gusting 6 25.6
2020-Sep-25 23:10 017 2 gusting 5 25.6
2020-Sep-25 23:05 033 3 gusting 6 25.6
2020-Sep-25 23:00 035 1 gusting 4 25.6
2020-Sep-25 22:55 025 2 gusting 5 25.0
2020-Sep-25 22:50 019 2 gusting 6 25.0
2020-Sep-25 22:45 011 2 gusting 5 25.0
2020-Sep-25 22:40 017 2 gusting 4 25.0
2020-Sep-25 22:35 018 1 gusting 2 25.0
2020-Sep-25 22:30 354 1 gusting 2 24.4
2020-Sep-25 22:25 029 0 gusting 2 24.4
2020-Sep-25 22:20 023 0 gusting 1 24.4
2020-Sep-25 22:15 012 0 gusting 2 24.4
2020-Sep-25 22:10 004 1 gusting 2 24.4
2020-Sep-25 22:05 015 1 gusting 2 24.4
2020-Sep-25 22:00 039 0 gusting 2 24.4
2020-Sep-25 21:50 053 0 gusting 0 24.4
2020-Sep-25 21:45 054 1 gusting 2 24.4
2020-Sep-25 21:40 044 1 gusting 2 24.4
2020-Sep-25 21:35 042 1 gusting 2 24.4
2020-Sep-25 21:30 057 0 gusting 2 24.4
2020-Sep-25 21:25 217 0 gusting 1 24.4
2020-Sep-25 21:20 034 0 gusting 1 24.4
2020-Sep-25 21:15 016 1 gusting 1 24.4
2020-Sep-25 21:10 039 0 gusting 1 24.4
2020-Sep-25 21:05 074 0 gusting 1 24.4
2020-Sep-25 21:00 033 0 gusting 1 24.4
2020-Sep-25 20:55 011 1 gusting 1 24.4
2020-Sep-25 20:50 005 1 gusting 1 24.4
2020-Sep-25 20:45 359 1 gusting 2 24.4
2020-Sep-25 20:40 041 1 gusting 4 24.4
2020-Sep-25 20:35 058 1 gusting 2 24.4
2020-Sep-25 20:30 019 1 gusting 2 24.4
2020-Sep-25 20:25 318 1 gusting 2 24.4
2020-Sep-25 20:20 045 1 gusting 4 24.4
2020-Sep-25 20:15 043 2 gusting 5 24.4
2020-Sep-25 20:10 029 2 gusting 5 24.4
2020-Sep-25 20:05 033 2 gusting 5 24.4
2020-Sep-25 20:00 025 1 gusting 4 24.4
2020-Sep-25 19:55 022 2 gusting 5 24.4
2020-Sep-25 19:50 008 2 gusting 5 24.4
2020-Sep-25 19:45 013 2 gusting 4 24.4
2020-Sep-25 19:40 005 2 gusting 4 24.4
2020-Sep-25 19:35 013 2 gusting 5 24.4
2020-Sep-25 19:30 027 1 gusting 4 24.4
2020-Sep-25 19:25 25.0
2020-Sep-25 19:20 020 2 gusting 5 24.4
2020-Sep-25 19:15 015 2 gusting 4 25.0
2020-Sep-25 19:10 023 1 gusting 2 25.0
2020-Sep-25 19:05 001 1 gusting 4 25.0
2020-Sep-25 19:00 019 2 gusting 5 25.0
2020-Sep-25 18:55 013 2 gusting 5 25.0
2020-Sep-25 18:50 024 1 gusting 2 25.0
2020-Sep-25 18:45 033 1 gusting 2 25.0
2020-Sep-25 18:40 017 1 gusting 2 25.0
2020-Sep-25 18:35 348 1 gusting 2 25.0
2020-Sep-25 18:30 017 1 gusting 4 25.0
2020-Sep-25 18:25 003 1 gusting 2 25.0
2020-Sep-25 18:20 004 1 gusting 4 25.0
2020-Sep-25 18:15 035 1 gusting 2 25.0
2020-Sep-25 18:10 038 1 gusting 2 25.0
2020-Sep-25 18:05 058 1 gusting 2 25.0
2020-Sep-25 18:00 058 0 gusting 1 25.0
2020-Sep-25 17:55 037 1 gusting 4 25.0
2020-Sep-25 17:50 052 1 gusting 4 25.0
2020-Sep-25 17:45 052 1 gusting 4 25.0
2020-Sep-25 17:40 034 2 gusting 4 25.0
2020-Sep-25 17:35 043 2 gusting 4 25.0
2020-Sep-25 17:30 039 2 gusting 5 25.0
2020-Sep-25 17:25 050 2 gusting 5 25.0
2020-Sep-25 17:20 030 3 gusting 5 25.0
2020-Sep-25 17:15 041 3 gusting 6 25.0
2020-Sep-25 17:10 035 3 gusting 6 25.0
2020-Sep-25 17:05 025 3 gusting 5 25.0
2020-Sep-25 17:00 045 3 gusting 6 25.0
2020-Sep-25 16:55 021 1 gusting 4 25.0
2020-Sep-25 16:50 017 2 gusting 5 25.0
2020-Sep-25 16:45 013 2 gusting 5 25.0
2020-Sep-25 16:40 004 3 gusting 6 25.0
2020-Sep-25 16:35 039 2 gusting 6 25.0
2020-Sep-25 16:30 010 2 gusting 5 25.0
2020-Sep-25 16:25 003 3 gusting 6 25.0
2020-Sep-25 16:20 020 2 gusting 4 25.0
2020-Sep-25 16:15 003 2 gusting 5 25.0
2020-Sep-25 16:10 008 1 gusting 5 25.0
2020-Sep-25 16:05 021 2 gusting 6 25.0
2020-Sep-25 16:00 052 1 gusting 5 25.0
2020-Sep-25 15:55 033 2 gusting 5 25.0
2020-Sep-25 15:50 024 2 gusting 6 25.0
2020-Sep-25 15:45 022 2 gusting 5 25.0
2020-Sep-25 15:40 008 3 gusting 6 25.0
2020-Sep-25 15:35 014 2 gusting 4 25.0
2020-Sep-25 15:30 033 1 gusting 4 25.0
2020-Sep-25 15:25 029 2 gusting 4 25.0
2020-Sep-25 15:20 028 3 gusting 5 25.0
2020-Sep-25 15:15 037 3 gusting 6 25.0
2020-Sep-25 15:10 049 2 gusting 5 25.6
2020-Sep-25 15:05 040 3 gusting 6 25.6
2020-Sep-25 15:00 039 4 gusting 6 25.6
2020-Sep-25 14:55 033 3 gusting 7 25.6
2020-Sep-25 14:50 045 4 gusting 7 25.6
2020-Sep-25 14:45 025 3 gusting 6 25.6
2020-Sep-25 14:40 034 3 gusting 7 25.6
2020-Sep-25 14:35 035 3 gusting 7 25.6
2020-Sep-25 14:30 036 3 gusting 6 25.6
2020-Sep-25 14:25 024 3 gusting 6 25.6
2020-Sep-25 14:20 011 3 gusting 7 25.6
2020-Sep-25 14:15 037 2 gusting 6 25.6
2020-Sep-25 14:10 027 3 gusting 6 25.6
2020-Sep-25 14:05 358 3 gusting 6 25.6
2020-Sep-25 14:00 016 3 gusting 6 25.6
2020-Sep-25 13:55 034 4 gusting 6 25.6
2020-Sep-25 13:50 039 4 gusting 7 25.6
2020-Sep-25 13:45 026 4 gusting 9 25.6
2020-Sep-25 13:40 029 4 gusting 8 25.6
2020-Sep-25 13:35 012 6 gusting 9 25.6
2020-Sep-25 13:30 022 6 gusting 12 25.6
2020-Sep-25 13:25 026 4 gusting 8 25.6
2020-Sep-25 13:20 019 5 gusting 9 25.6
2020-Sep-25 13:15 018 5 gusting 8 25.6
2020-Sep-25 13:10 010 4 gusting 6 25.6
2020-Sep-25 13:05 039 5 gusting 8 25.6
2020-Sep-25 13:00 010 4 gusting 7 25.6
2020-Sep-25 12:55 004 6 gusting 9 25.6
2020-Sep-25 12:50 003 5 gusting 9 25.6
2020-Sep-25 12:45 013 5 gusting 9 26.1
2020-Sep-25 12:40 004 4 gusting 12 26.1
2020-Sep-25 12:35 025 3 gusting 6 26.1
2020-Sep-25 12:30 012 2 gusting 4 26.1
2020-Sep-25 12:25 021 4 gusting 8 26.1
2020-Sep-25 12:20 032 3 gusting 8 26.1
2020-Sep-25 12:15 015 5 gusting 7 26.1
2020-Sep-25 12:10 023 6 gusting 9 26.1
2020-Sep-25 12:05 022 5 gusting 8 26.1
2020-Sep-25 12:00 018 5 gusting 13 26.1
2020-Sep-25 11:55 015 4 gusting 7 26.1
2020-Sep-25 11:50 015 4 gusting 11 26.1
2020-Sep-25 11:45 025 2 gusting 6 26.1
2020-Sep-25 11:40 015 4 gusting 6 26.1
2020-Sep-25 11:35 029 5 gusting 8 26.1
2020-Sep-25 11:30 024 3 gusting 9 26.1
2020-Sep-25 11:25 009 4 gusting 13 26.7
2020-Sep-25 11:20 022 5 gusting 12 26.7
2020-Sep-25 11:15 012 4 gusting 8 26.7
2020-Sep-25 11:10 016 6 gusting 9 26.7
2020-Sep-25 11:05 018 4 gusting 12 26.7
2020-Sep-25 11:00 034 6 gusting 11 26.7
2020-Sep-25 10:55 005 6 gusting 12 26.7
2020-Sep-25 10:50 018 6 gusting 14 26.7
2020-Sep-25 10:45 007 5 gusting 8 26.7
2020-Sep-25 10:40 023 5 gusting 12 26.7
2020-Sep-25 10:35 003 4 gusting 9 26.7
2020-Sep-25 10:30 012 5 gusting 9 26.7
2020-Sep-25 10:25 013 5 gusting 13 26.7
2020-Sep-25 10:20 020 5 gusting 13 26.7
2020-Sep-25 10:15 011 4 gusting 8 26.7
2020-Sep-25 10:10 019 6 gusting 11 26.7
2020-Sep-25 10:05 011 6 gusting 13 27.2
2020-Sep-25 10:00 017 5 gusting 13 27.2
2020-Sep-25 09:55 018 6 gusting 13 27.2
2020-Sep-25 09:50 009 6 gusting 12 27.2
2020-Sep-25 09:45 356 6 gusting 13 27.2
2020-Sep-25 09:40 012 6 gusting 14 27.2
2020-Sep-25 09:35 021 6 gusting 13 27.2
2020-Sep-25 09:30 013 6 gusting 13 27.2
2020-Sep-25 09:25 023 4 gusting 9 27.8
2020-Sep-25 09:20 024 5 gusting 11 27.8
2020-Sep-25 09:15 008 5 gusting 11 27.8
2020-Sep-25 09:10 022 4 gusting 9 27.8
2020-Sep-25 09:05 008 5 gusting 9 27.2
2020-Sep-25 09:00 026 6 gusting 13 27.2
2020-Sep-25 08:55 009 6 gusting 13 27.2
2020-Sep-25 08:50 015 6 gusting 12 27.2
2020-Sep-25 08:45 019 6 gusting 12 27.2
2020-Sep-25 08:40 003 6 gusting 12 27.2
2020-Sep-25 08:35 020 6 gusting 12 27.2
2020-Sep-25 08:30 018 7 gusting 13 27.2
2020-Sep-25 08:25 015 9 gusting 14 27.2
2020-Sep-25 08:20 019 8 gusting 14 27.8
2020-Sep-25 08:15 031 7 gusting 13 27.8
2020-Sep-25 08:05 016 6 gusting 13 27.8
2020-Sep-25 08:00 008 9 gusting 15 27.8
2020-Sep-25 07:55 006 8 gusting 15 27.8
2020-Sep-25 07:50 358 7 gusting 14 27.8
2020-Sep-25 07:45 014 6 gusting 13 27.8
2020-Sep-25 07:40 015 8 gusting 14 27.8
2020-Sep-25 07:35 011 8 gusting 15 27.8
2020-Sep-25 07:30 029 7 gusting 13 28.3
2020-Sep-25 07:25 023 7 gusting 13 28.3
2020-Sep-25 07:20 014 8 gusting 19 27.8
2020-Sep-25 07:15 020 10 gusting 18 28.3
2020-Sep-25 07:10 027 8 gusting 13 28.3
2020-Sep-25 07:05 018 7 gusting 13 28.3
2020-Sep-25 07:00 008 8 gusting 13 28.3
2020-Sep-25 06:55 012 8 gusting 17 28.3
2020-Sep-25 06:50 018 10 gusting 18 28.3
2020-Sep-25 06:45 012 9 gusting 19 28.3
2020-Sep-25 06:40 012 9 gusting 15 28.9
2020-Sep-25 06:35 022 6 gusting 13 28.9
2020-Sep-25 06:30 012 9 gusting 13 28.9
2020-Sep-25 06:25 016 8 gusting 15 28.9
2020-Sep-25 06:20 021 8 gusting 17 28.9
2020-Sep-25 06:15 011 7 gusting 13 28.9
2020-Sep-25 06:10 022 6 gusting 17 28.9
2020-Sep-25 06:05 038 7 gusting 14 28.3
2020-Sep-25 06:00 013 6 gusting 13 28.3
2020-Sep-25 05:55 026 6 gusting 13 28.3
2020-Sep-25 05:50 032 7 gusting 15 28.3
2020-Sep-25 05:45 011 7 gusting 15 28.3
2020-Sep-25 05:40 031 9 gusting 17 28.3
2020-Sep-25 05:35 019 7 gusting 15 28.3
2020-Sep-25 05:30 019 9 gusting 18 27.8
2020-Sep-25 05:25 014 8 gusting 15 27.8
2020-Sep-25 05:20 026 6 gusting 13 28.3
2020-Sep-25 05:15 006 7 gusting 14 28.3
2020-Sep-25 05:10 001 6 gusting 17 27.8
2020-Sep-25 05:05 008 8 gusting 18 27.8
2020-Sep-25 05:00 009 9 gusting 18 27.8
2020-Sep-25 04:55 016 8 gusting 17 28.3
2020-Sep-25 04:50 007 6 gusting 12 28.3
2020-Sep-25 04:45 023 9 gusting 17 27.8
2020-Sep-25 04:40 031 6 gusting 14 27.8
2020-Sep-25 04:35 007 6 gusting 13 27.8
2020-Sep-25 04:30 002 6 gusting 13 27.8
2020-Sep-25 04:25 014 7 gusting 13 27.8
2020-Sep-25 04:20 020 6 gusting 13 27.8
2020-Sep-25 04:15 031 6 gusting 12 27.8
2020-Sep-25 04:10 017 6 gusting 12 27.8
2020-Sep-25 04:05 018 7 gusting 13 27.8
2020-Sep-25 04:00 015 6 gusting 9 27.8
2020-Sep-25 03:55 017 7 gusting 12 27.8
2020-Sep-25 03:50 009 7 gusting 14 27.8
2020-Sep-25 03:45 010 8 gusting 13 27.8
2020-Sep-25 03:40 008 7 gusting 15 27.8
2020-Sep-25 03:35 020 6 gusting 14 27.8
2020-Sep-25 03:30 008 6 gusting 17 27.8
2020-Sep-25 03:25 037 6 gusting 12 27.2
2020-Sep-25 03:20 021 7 gusting 13 27.2
2020-Sep-25 03:15 017 6 gusting 14 27.2
2020-Sep-25 03:10 020 5 gusting 12 27.2
2020-Sep-25 03:05 354 7 gusting 13 26.7
2020-Sep-25 03:00 019 8 gusting 14 26.7
2020-Sep-25 02:55 005 7 gusting 13 26.7
2020-Sep-25 02:50 029 6 gusting 13 26.7
2020-Sep-25 02:45 025 6 gusting 14 26.7
2020-Sep-25 02:40 028 6 gusting 11 26.7
2020-Sep-25 02:35 042 7 gusting 14 26.1
2020-Sep-25 02:30 018 9 gusting 14 26.1
2020-Sep-25 02:25 023 8 gusting 15 26.1
2020-Sep-25 02:20 353 8 gusting 19 26.1
2020-Sep-25 02:15 012 8 gusting 17 26.1
2020-Sep-25 02:10 011 9 gusting 17 26.7
2020-Sep-25 02:05 035 10 gusting 18 26.7
2020-Sep-25 02:00 016 7 gusting 13 26.7
2020-Sep-25 01:55 033 8 gusting 19 26.7
2020-Sep-25 01:50 012 8 gusting 19 26.7
2020-Sep-25 01:45 021 6 gusting 14 26.7
2020-Sep-25 01:40 028 6 gusting 13 26.7
2020-Sep-25 01:35 015 6 gusting 13 26.7
2020-Sep-25 01:30 043 7 gusting 13 26.7
2020-Sep-25 01:25 015 6 gusting 13 26.1
2020-Sep-25 01:20 009 8 gusting 13 26.7
2020-Sep-25 01:15 016 6 gusting 13 26.1
2020-Sep-25 01:10 036 6 gusting 11 26.7
2020-Sep-25 01:05 020 6 gusting 9 26.7
2020-Sep-25 01:00 016 6 gusting 11 26.7
2020-Sep-25 00:55 038 6 gusting 9 26.7
2020-Sep-25 00:50 022 4 gusting 8 26.7
2020-Sep-25 00:45 015 3 gusting 8 26.7
2020-Sep-25 00:40 035 6 gusting 11 26.7
2020-Sep-25 00:35 038 5 gusting 8 26.7
2020-Sep-25 00:30 049 3 gusting 9 26.7
2020-Sep-25 00:25 048 4 gusting 8 26.7
2020-Sep-25 00:20 037 4 gusting 8 26.7
2020-Sep-25 00:15 034 6 gusting 13 26.1
2020-Sep-25 00:10 022 5 gusting 12 26.1
2020-Sep-25 00:05 037 5 gusting 13 25.6
2020-Sep-25 00:00 029 6 gusting 14 25.0
2020-Sep-24 23:55 030 6 gusting 12 25.0
2020-Sep-24 23:50 032 6 gusting 12 25.0
2020-Sep-24 23:45 017 6 gusting 11 24.4
2020-Sep-24 23:40 022 5 gusting 11 24.4
2020-Sep-24 23:35 010 6 gusting 13 24.4
2020-Sep-24 23:30 045 5 gusting 9 24.4
2020-Sep-24 23:25 024 5 gusting 9 24.4
2020-Sep-24 23:20 014 5 gusting 12 24.4
2020-Sep-24 23:15 026 5 gusting 8 24.4
2020-Sep-24 23:10 025 4 gusting 7 24.4
2020-Sep-24 23:05 036 5 gusting 9 24.4
2020-Sep-24 23:00 018 6 gusting 13 24.4
2020-Sep-24 22:55 041 5 gusting 12 24.4
2020-Sep-24 22:50 033 6 gusting 9 23.9
2020-Sep-24 22:45 023 7 gusting 13 23.9
2020-Sep-24 22:40 035 6 gusting 12 23.9
2020-Sep-24 22:35 034 5 gusting 9 23.9
2020-Sep-24 22:30 031 6 gusting 14 23.9
2020-Sep-24 22:25 023 5 gusting 13 23.9
2020-Sep-24 22:20 024 5 gusting 12 23.9
2020-Sep-24 22:16 025 5 gusting 9 23.9
2020-Sep-24 22:10 019 6 gusting 9 23.9
2020-Sep-24 22:05 020 6 gusting 13 23.9
2020-Sep-24 22:00 015 4 gusting 9 23.9
2020-Sep-24 21:55 020 5 gusting 11 23.9
2020-Sep-24 21:50 019 6 gusting 9 23.9
2020-Sep-24 21:45 005 4 gusting 7 23.9
2020-Sep-24 21:40 032 6 gusting 9 23.9
2020-Sep-24 21:35 042 5 gusting 9 23.9
2020-Sep-24 21:30 026 6 gusting 11 24.4
2020-Sep-24 21:25 025 6 gusting 8 24.4
2020-Sep-24 21:20 031 6 gusting 12 24.4
2020-Sep-24 21:15 024 6 gusting 13 24.4
2020-Sep-24 21:10 033 7 gusting 14 24.4
2020-Sep-24 21:05 040 6 gusting 12 24.4
2020-Sep-24 21:00 025 7 gusting 13 24.4
2020-Sep-24 20:55 030 6 gusting 11 24.4
2020-Sep-24 20:50 017 7 gusting 14 24.4
2020-Sep-24 20:45 040 6 gusting 9 24.4
2020-Sep-24 20:40 036 6 gusting 14 24.4
2020-Sep-24 20:35 009 6 gusting 13 24.4
2020-Sep-24 20:30 017 6 gusting 12 24.4
2020-Sep-24 20:25 002 7 gusting 13 24.4
2020-Sep-24 20:20 020 7 gusting 14 23.9
2020-Sep-24 20:15 031 7 gusting 13 23.9
2020-Sep-24 20:10 028 7 gusting 13 23.9
2020-Sep-24 20:05 036 6 gusting 13 23.9
2020-Sep-24 20:00 035 6 gusting 12 23.9
2020-Sep-24 19:55 038 6 gusting 13 23.9
2020-Sep-24 19:50 035 6 gusting 14 23.9
2020-Sep-24 19:45 033 6 gusting 13 23.9
2020-Sep-24 19:40 030 8 gusting 14 23.9
2020-Sep-24 19:35 030 6 gusting 12 23.9
2020-Sep-24 19:30 025 6 gusting 12 23.9
2020-Sep-24 19:25 038 7 gusting 14 23.9
2020-Sep-24 19:20 021 8 gusting 15 23.9
2020-Sep-24 19:15 020 7 gusting 15 23.9
2020-Sep-24 19:10 021 7 gusting 13 23.9
2020-Sep-24 19:05 011 6 gusting 11 23.9
2020-Sep-24 19:00 020 7 gusting 13 23.9
2020-Sep-24 18:55 034 6 gusting 13 23.9
2020-Sep-24 18:50 018 5 gusting 11 23.9
2020-Sep-24 18:45 035 5 gusting 12 23.9
2020-Sep-24 18:40 013 7 gusting 13 23.9
2020-Sep-24 18:35 016 6 gusting 11 24.4
2020-Sep-24 18:30 023 5 gusting 11 24.4
2020-Sep-24 18:25 035 4 gusting 8 24.4
2020-Sep-24 18:20 021 4 gusting 7 24.4
2020-Sep-24 18:15 026 5 gusting 9 24.4
2020-Sep-24 18:10 031 4 gusting 8 24.4
2020-Sep-24 18:05 020 4 gusting 7 24.4
2020-Sep-24 18:00 004 3 gusting 8 24.4
2020-Sep-24 17:55 035 5 gusting 13 24.4
2020-Sep-24 17:50 011 6 gusting 12 24.4
2020-Sep-24 17:45 049 6 gusting 11 24.4
2020-Sep-24 17:40 021 6 gusting 12 24.4
2020-Sep-24 17:35 016 5 gusting 8 24.4
2020-Sep-24 17:30 033 4 gusting 9 24.4
2020-Sep-24 17:25 021 6 gusting 11 24.4
2020-Sep-24 17:20 038 7 gusting 13 24.4
2020-Sep-24 17:15 036 6 gusting 12 24.4
2020-Sep-24 17:10 028 6 gusting 14 24.4
2020-Sep-24 17:05 041 4 gusting 7 24.4
2020-Sep-24 17:00 034 5 gusting 9 24.4